sat.trackr.live / text

‹ back to catalog

STARLINK-32226

NORAD 60426 · 2024-144B

PAYLOAD ACTIVE UNKNOWN

§ Identity

Operator
Country
US
Launch date
2024-08-12
Launch site
AFETR
Launch vehicle
Mass (kg)
RCS (m²)

Purposes: comms

External: N2YO · Heavens-Above · Gunter

§ Orbital elements

Epoch: 2026-09-21T19:03:06.321024Z

Period
93.85 min
Inclination
53.1606°
Eccentricity
0.0001019
Mean motion
15.34404454 rev/d
Perigee alt
462.0 km
Apogee alt
463.4 km
Semi-major
6,840.8 km
B*
-6.1952e-5
RAAN
23.4092°
Arg perigee
77.5924°
Mean anomaly
282.5192°
Rev number
11,937

§ Raw data

STARLINK-322261 60426U 24144B   26264.79382316 -.00002469  00000+0 -61952-4 0  99912 60426  53.1606  23.4092 0001019  77.5924 282.5192 15.34404454119370

JSON: /api/v1/satellites/60426 · /tle

For live sub-satellite position, see the globe view (requires WebGL).

§ Visibility from observer

Set your observer location to see the next 7 days of passes ≥ 10°. The values pass through the URL so the page stays shareable.

No JS? Fill the form by hand. The geolocation button needs JavaScript.